| time (UTC) | temp F | wind direction | speed knots | gust knots | rain 1hr in | rain 24hr in | rain mn in | humidity % | barometer mb |
| 20260506194600 | 55 | 326 | 1.7 | 7.0 | 0.00 | 1.29 | 0.73 | 53 | 1012.4 |
| 20260506193103 | 56 | 322 | 2.6 | 10.4 | 0.00 | 1.29 | 0.73 | 50 | 1012.8 |
| 20260506191548 | 56 | 257 | 1.7 | 7.0 | 0.00 | 1.29 | 0.73 | 55 | 1013.0 |
| 20260506190048 | 55 | 311 | 3.5 | 9.6 | 0.00 | 1.29 | 0.73 | 54 | 1012.8 |
| 20260506184545 | 55 | 27 | 2.6 | 6.1 | 0.00 | 1.29 | 0.73 | 56 | 1012.8 |
| 20260506183036 | 54 | 305 | 4.3 | 9.6 | 0.00 | 1.29 | 0.73 | 55 | 1013.0 |
| 20260506181539 | 54 | 310 | 0.9 | 6.1 | 0.00 | 1.29 | 0.73 | 60 | 1012.7 |
| 20260506180027 | 54 | 309 | 3.5 | 7.0 | 0.00 | 1.29 | 0.73 | 59 | 1012.5 |
| 20260506174522 | 54 | 330 | 3.5 | 6.1 | 0.00 | 1.29 | 0.73 | 58 | 1012.8 |
| 20260506173018 | 53 | 311 | 1.7 | 6.1 | 0.00 | 1.29 | 0.73 | 54 | 1012.7 |
| 20260506171513 | 54 | 285 | 1.7 | 7.0 | 0.00 | 1.29 | 0.73 | 56 | 1012.8 |
| 20260506170007 | 54 | 287 | 1.7 | 7.0 | 0.00 | 1.29 | 0.73 | 50 | 1012.7 |
| 20260506164515 | 54 | 266 | 0.9 | 4.3 | 0.00 | 1.29 | 0.73 | 10 | 1012.7 |
| 20260506163111 | 53 | 323 | 2.6 | 5.2 | 0.00 | 1.29 | 0.73 | 34 | 1012.7 |
| 20260506161555 | 52 | 314 | 2.6 | 6.1 | 0.00 | 1.29 | 0.73 | 1 | 1012.4 |
| 20260506160057 | 51 | 16 | 1.7 | 4.3 | 0.00 | 1.29 | 0.73 | 1 | 1012.1 |
| 20260506154549 | 50 | 335 | 2.6 | 6.1 | 0.01 | 1.29 | 0.73 | 1 | 1012.3 |
| 20260506153042 | 48 | 337 | 2.6 | 7.8 | 0.01 | 1.29 | 0.73 | 1 | 1012.0 |
| 20260506151542 | 48 | 333 | 3.5 | 7.0 | 0.01 | 1.29 | 0.73 | 1 | 1012.1 |
| 20260506150043 | 47 | 318 | 3.5 | 7.0 | 0.01 | 1.29 | 0.73 | 1 | 1012.0 |
| 20260506144532 | 47 | 306 | 2.6 | 6.1 | 0.00 | 1.28 | 0.72 | 1 | 1011.8 |
| 20260506143036 | 46 | 311 | 0.9 | 6.1 | 0.00 | 1.28 | 0.72 | 1 | 1011.6 |
| 20260506141530 | 46 | 319 | 2.6 | 8.7 | 0.00 | 1.28 | 0.72 | 1 | 1011.3 |
| 20260506140020 | 47 | 333 | 2.6 | 7.8 | 0.00 | 1.28 | 0.72 | 1 | 1011.1 |
| 20260506134516 | 46 | 323 | 2.6 | 6.1 | 0.00 | 1.28 | 0.72 | 1 | 1011.1 |
| 20260506133011 | 47 | 316 | 1.7 | 4.3 | 0.00 | 1.28 | 0.72 | 1 | 1010.8 |
| 20260506131510 | 47 | 308 | 0.9 | 5.2 | 0.00 | 1.28 | 0.72 | 1 | 1010.4 |
| 20260506130003 | 46 | 313 | 2.6 | 5.2 | 0.00 | 1.28 | 0.72 | 1 | 1010.3 |
| 20260506124558 | 46 | 328 | 0.0 | 2.6 | 0.00 | 1.28 | 0.72 | 1 | 1010.5 |
| 20260506123055 | 45 | 311 | 0.9 | 4.3 | 0.00 | 1.28 | 0.72 | 1 | 1010.5 |
| 20260506121555 | 45 | 326 | 1.7 | 5.2 | 0.02 | 1.28 | 0.72 | 1 | 1009.9 |
| 20260506120057 | 45 | 23 | 1.7 | 3.5 | 0.02 | 1.28 | 0.72 | 1 | 1009.7 |
| 20260506114540 | 45 | 25 | 0.9 | 3.5 | 0.02 | 1.28 | 0.72 | 1 | 1009.6 |
| 20260506113036 | 45 | 325 | 1.7 | 6.1 | 0.02 | 1.28 | 0.72 | 1 | 1009.3 |
| 20260506111532 | 44 | 311 | 3.5 | 7.0 | 0.00 | 1.26 | 0.70 | 1 | 1009.8 |
| 20260506110030 | 44 | 333 | 2.6 | 7.0 | 0.02 | 1.26 | 0.70 | 1 | 1009.4 |
| 20260506104535 | 44 | 340 | 2.6 | 8.7 | 0.05 | 1.26 | 0.70 | 1 | 1008.3 |
| 20260506103035 | 44 | 326 | 1.7 | 9.6 | 0.09 | 1.26 | 0.70 | 1 | 1008.0 |
| 20260506101514 | 44 | 28 | 0.9 | 7.0 | 0.12 | 1.26 | 0.70 | 1 | 1008.1 |
| 20260506100010 | 44 | 9 | 2.6 | 11.3 | 0.11 | 1.24 | 0.68 | 1 | 1008.2 |
| 20260506094505 | 44 | 330 | 1.7 | 7.0 | 0.08 | 1.21 | 0.65 | 1 | 1008.7 |
| 20260506093001 | 44 | 320 | 1.7 | 7.0 | 0.05 | 1.17 | 0.61 | 1 | 1008.6 |
| 20260506091557 | 45 | 336 | 2.6 | 9.6 | 0.03 | 1.13 | 0.57 | 1 | 1008.4 |
| 20260506090053 | 45 | 324 | 2.6 | 7.8 | 0.06 | 1.12 | 0.56 | 1 | 1008.4 |
| 20260506084615 | 45 | 347 | 2.6 | 9.6 | 0.10 | 1.12 | 0.56 | 1 | 1008.0 |
| 20260506083044 | 46 | 330 | 4.3 | 7.8 | 0.13 | 1.12 | 0.56 | 1 | 1007.8 |
| 20260506081550 | 47 | 333 | 3.5 | 7.0 | 0.14 | 1.11 | 0.55 | 1 | 1007.8 |
| 20260506073025 | 48 | 35 | 1.7 | 4.3 | 0.09 | 0.99 | 0.43 | 1 | 1007.3 |
| 20260506071521 | 48 | 8 | 0.9 | 5.2 | 0.11 | 0.97 | 0.41 | 1 | 1007.0 |
| 20260506061503 | 49 | 352 | 0.0 | 4.3 | 0.12 | 0.86 | 0.30 | 1 | 1007.8 |
| 20260506044538 | 50 | 319 | 1.7 | 8.7 | 0.15 | 0.70 | 0.14 | 1 | 1008.6 |
| 20260506043031 | 51 | 13 | 2.6 | 5.2 | 0.14 | 0.67 | 0.11 | 1 | 1008.8 |
| 20260506041529 | 53 | 341 | 0.9 | 4.3 | 0.09 | 0.61 | 0.05 | 1 | 1008.5 |
| 20260506040027 | 53 | 20 | 0.9 | 3.5 | 0.06 | 0.56 | 0.00 | 1 | 1008.6 |
| 20260506034518 | 54 | 328 | 0.9 | 4.3 | 0.05 | 0.54 | 0.54 | 1 | 1008.6 |
| 20260506033014 | 56 | 359 | 0.0 | 4.3 | 0.05 | 0.53 | 0.53 | 1 | 1008.7 |
| 20260506031513 | 57 | 236 | 0.0 | 0.9 | 0.05 | 0.51 | 0.51 | 1 | 1008.7 |
| 20260506030012 | 57 | 243 | 0.9 | 2.6 | 0.05 | 0.50 | 0.50 | 1 | 1008.9 |
| 20260506024509 | 57 | 243 | 0.0 | 2.6 | 0.06 | 0.49 | 0.49 | 1 | 1009.0 |
| 20260506023004 | 57 | 226 | 0.0 | 1.7 | 0.06 | 0.48 | 0.48 | 1 | 1009.1 |
| 20260506021622 | 57 | 198 | 0.0 | 0.0 | 0.04 | 0.46 | 0.46 | 1 | 1009.0 |
| 20260506020057 | 57 | 188 | 0.0 | 0.0 | 0.04 | 0.45 | 0.45 | 1 | 1008.7 |
| 20260506014553 | 57 | 188 | 0.0 | 0.0 | 0.04 | 0.43 | 0.43 | 1 | 1008.6 |
| 20260506013058 | 56 | 188 | 0.0 | 0.0 | 0.04 | 0.42 | 0.42 | 1 | 1008.4 |
| 20260506011553 | 57 | 198 | 0.0 | 0.0 | 0.04 | 0.42 | 0.42 | 1 | 1008.4 |
| 20260506010040 | 57 | 285 | 0.0 | 0.0 | 0.04 | 0.41 | 0.41 | 1 | 1008.4 |
| 20260506004535 | 57 | 286 | 0.0 | 0.9 | 0.05 | 0.39 | 0.39 | 1 | 1008.5 |
| 20260506003030 | 56 | 276 | 0.0 | 0.0 | 0.23 | 0.38 | 0.38 | 1 | 1008.4 |
| 20260506001526 | 56 | 276 | 0.0 | 0.0 | 0.36 | 0.38 | 0.38 | 1 | 1008.4 |
| 20260506000024 | 56 | 276 | 0.0 | 0.0 | 0.35 | 0.37 | 0.37 | 1 | 1008.5 |
| 20260505234517 | 56 | 309 | 0.9 | 14.8 | 0.32 | 0.34 | 0.34 | 1 | 1008.7 |
| 20260505233012 | 62 | 302 | 7.0 | 11.3 | 0.10 | 0.12 | 0.12 | 1 | 1008.7 |
| 20260505231512 | 64 | 335 | 0.0 | 1.7 | 0.00 | 0.02 | 0.02 | 21 | 1007.4 |
| 20260505230010 | 64 | 248 | 0.0 | 0.0 | 0.00 | 0.02 | 0.02 | 22 | 1007.5 |
| 20260505224604 | 65 | 231 | 0.0 | 0.0 | 0.00 | 0.02 | 0.02 | 14 | 1007.5 |
| 20260505223057 | 64 | 231 | 0.0 | 0.0 | 0.00 | 0.02 | 0.02 | 26 | 1007.6 |
| 20260505221551 | 64 | 231 | 0.0 | 0.0 | 0.00 | 0.02 | 0.02 | 23 | 1007.7 |
| 20260505220051 | 64 | 231 | 0.0 | 0.9 | 0.00 | 0.02 | 0.02 | 27 | 1007.9 |
| 20260505214553 | 64 | 220 | 0.0 | 0.9 | 0.00 | 0.02 | 0.02 | 22 | 1007.9 |
| 20260505213040 | 64 | 230 | 0.0 | 0.0 | 0.00 | 0.02 | 0.02 | 22 | 1007.9 |
| 20260505211535 | 64 | 228 | 0.0 | 2.6 | 0.00 | 0.02 | 0.02 | 21 | 1007.8 |
| 20260505210029 | 64 | 231 | 0.0 | 3.5 | 0.01 | 0.02 | 0.02 | 18 | 1007.9 |
| 20260505204526 | 64 | 243 | 0.0 | 3.5 | 0.02 | 0.02 | 0.02 | 19 | 1008.0 |
| 20260505203028 | 63 | 240 | 0.0 | 4.3 | 0.02 | 0.02 | 0.02 | 8 | 1008.0 |
| 20260505201529 | 63 | 238 | 2.6 | 7.8 | 0.02 | 0.02 | 0.02 | 19 | 1008.1 |
| 20260505200020 | 64 | 213 | 0.0 | 2.6 | 0.01 | 0.01 | 0.01 | 41 | 1008.2 |